Weather History for Wolf Point, MT

Change the Weather History Date:

Friday, January 31, 2014

  Actual Average Record
Temperature  
Mean Temperature 2 °F -  
Max Temperature 17 °F 26 °F 50 °F (2012)
Min Temperature -14 °F 1 °F -27 °F (2011)
Degree Days  
Heating Degree Days 63    
Cooling Degree Days 0    
Moisture  
Dew Point -5 °F    
Average Humidity 71    
Maximum Humidity 83    
Minimum Humidity 59    
Precipitation  
Precipitation T in 0.00 in 0.00 in (2014)
Month to date precipitation 0.06 0.31  
Year to date precipitation 0.06 0.31  
Sea Level Pressure  
Sea Level Pressure 30.01 in    
Wind  
Wind Speed 7 mph (West)    
Max Wind Speed 22 mph    
Max Gust Speed 22 mph    
Visibility 10 miles    
Events      
T = Trace of Precipitation, MM = Missing Value Source: NWS Daily Summary

Daily Weather History Graph

Daily Weather History Graph

Search for Another Location

Airport:

Trip Planner

Search our weather history database for the weather conditions in past years. The results will help you decide how hot, cold, wet, or windy it might be!

Date:

Astronomy

Jan. 31, 2014 Rise Set
Actual Time 7:31 AM MST 5:00 PM MST
Civil Twilight 6:57 AM MST 5:34 PM MST
Nautical Twilight 6:20 AM MST 6:11 PM MST
Astronomical Twilight 5:44 AM MST 6:48 PM MST
Moon 7:34 AM MST (1/31) 6:38 PM MST (1/31)
Length of Visible Light 10h 36m
Length of Day
9h 29m
New Moon, 1% of the Moon is Illuminated
Jan 31
New Moon
Feb 6
First Quarter
Feb 14
Full
Feb 22
Last Quarter
Mar 1
New

Hourly Weather History & Observations

Time (MST) Temp. Windchill Dew Point Humidity Pressure Visibility Wind Dir Wind Speed Gust Speed Precip Events Conditions
12:53 AM -8.0 °F - -13.0 °F 79% 30.11 in 10.0 mi Calm Calm - N/A   Clear
1:53 AM -8.0 °F -21.0 °F -13.0 °F 79% 30.10 in 10.0 mi SW 5.8 mph - N/A   Clear
2:53 AM -9.0 °F -22.3 °F -14.1 °F 79% 30.08 in 10.0 mi WSW 5.8 mph - N/A   Clear
3:53 AM -9.9 °F -19.2 °F -15.0 °F 78% 30.05 in 10.0 mi WSW 3.5 mph - N/A   Clear
4:53 AM -11.0 °F - -15.0 °F 83% 30.04 in 10.0 mi Calm Calm - N/A   Clear
5:53 AM -11.9 °F -21.5 °F -17.0 °F 78% 30.01 in 10.0 mi SW 3.5 mph - N/A   Clear
6:53 AM -9.9 °F -23.4 °F -14.1 °F 82% 29.99 in 10.0 mi West 5.8 mph - N/A   Clear
7:53 AM -9.0 °F -18.2 °F -14.1 °F 79% 29.99 in 10.0 mi WSW 3.5 mph - N/A   Clear
8:53 AM -5.1 °F -15.8 °F -9.9 °F 80% 29.96 in 10.0 mi SSW 4.6 mph - N/A   Clear
9:53 AM -0.9 °F - -6.0 °F 79% 29.94 in 10.0 mi Calm Calm - N/A   Clear
10:53 AM 5.0 °F -2.1 °F -0.9 °F 76% 29.91 in 10.0 mi WNW 3.5 mph - N/A   Clear
11:53 AM 10.0 °F -4.5 °F 1.0 °F 67% 29.88 in 10.0 mi West 11.5 mph - N/A   Clear
12:53 PM 15.1 °F -2.0 °F 3.0 °F 59% 29.85 in 10.0 mi West 19.6 mph - N/A   Clear
1:53 PM 15.1 °F -2.9 °F 3.9 °F 61% 29.84 in 10.0 mi West 21.9 mph - N/A   Clear
2:53 PM 17.1 °F 0.1 °F 5.0 °F 59% 29.88 in 10.0 mi WNW 20.7 mph - N/A   Mostly Cloudy
3:53 PM 16.0 °F -0.4 °F 5.0 °F 62% 29.92 in 10.0 mi WNW 18.4 mph - 0.00 in   Overcast
4:53 PM 12.9 °F -2.8 °F 3.0 °F 65% 29.97 in 10.0 mi WNW 15.0 mph 21.9 mph N/A   Mostly Cloudy
5:53 PM 12.9 °F -0.9 °F 1.9 °F 62% 30.02 in 10.0 mi NW 11.5 mph - N/A   Overcast
6:53 PM 10.9 °F -4.1 °F 1.0 °F 64% 30.06 in 10.0 mi WNW 12.7 mph - N/A   Overcast
7:53 PM 10.0 °F -3.7 °F 1.0 °F 67% 30.09 in 10.0 mi NW 10.4 mph - N/A   Overcast
8:48 PM 8.6 °F -7.7 °F -2.2 °F 62% 29.96 in 10.0 mi NW 13.8 mph - N/A   Overcast
8:53 PM 7.0 °F -7.5 °F -2.0 °F 67% 30.12 in 10.0 mi NW 10.4 mph - N/A   Overcast
9:11 PM 6.1 °F -9.5 °F -2.9 °F 67% 29.97 in 10.0 mi NW 11.5 mph - N/A   Scattered Clouds
9:44 PM 3.9 °F -10.4 °F -4.0 °F 70% 29.99 in 10.0 mi NW 9.2 mph - N/A   Mostly Cloudy
9:53 PM 3.9 °F -9.4 °F -4.0 °F 70% 30.14 in 10.0 mi NW 8.1 mph - N/A   Overcast
10:39 PM 1.9 °F -7.6 °F -5.1 °F 72% 29.99 in 10.0 mi West 4.6 mph - N/A   Scattered Clouds
10:53 PM 3.9 °F -5.3 °F -4.0 °F 70% 30.15 in 10.0 mi WSW 4.6 mph - N/A   Mostly Cloudy
11:53 PM 3.9 °F -6.9 °F -4.0 °F 70% 30.16 in 10.0 mi NW 5.8 mph - N/A   Mostly Cloudy